Regional Weather Roundup
Issued by NWS Charleston, WV

Home | Current Version | Previous Version | Text Only | Print | Product List | Glossary Off
Versions: 1 2 3 4 5 6 7 8 9 10 11 12 13 14 15 16 17 18 19 20 21 22 23 24 25 26 27 28 29 30 31 32 33 34 35 36 37 38 39 40 41 42 43 44 45 46 47 48 49 50

939
ASUS41 KRLX 060110
RWRRLX
West Virginia Regional Weather Roundup
National Weather Service Charleston WV
900 PM EDT THU MAY 05 2016

Note: "fair" indicates few or no clouds below 12,000 feet with no
significant weather and/or obstructions to visibility.

WVZ003-060200-
Northern Panhandle of West Virginia

CITY           SKY/WX    TMP DP  RH WIND       PRES   REMARKS
WHEELING       CLOUDY    52  47  83 N8        29.75R
$$

WVZ009-060200-
Northwest West Virginia

CITY           SKY/WX    TMP DP  RH WIND       PRES   REMARKS
PARKERSBURG    CLOUDY    52  50  93 CALM      29.79R
$$

WVZ006-060200-
Western West Virginia

CITY           SKY/WX    TMP DP  RH WIND       PRES   REMARKS
HUNTINGTON     LGT RAIN  52  47  83 W8        29.80R
$$

WVZ015-060200-
West Central West Virginia

CITY           SKY/WX    TMP DP  RH WIND       PRES   REMARKS
CHARLESTON     LGT RAIN  51  48  89 NW8       29.77R
$$

WVZ022-031-060200-
North Central West Virginia

CITY           SKY/WX    TMP DP  RH WIND       PRES   REMARKS
CLARKSBURG     CLOUDY    52  49  89 N5        29.72R
MORGANTOWN     CLOUDY    53  47  79 CALM      29.73R
$$

WVZ025-035-042-045-060200-
Southern West Virginia

CITY           SKY/WX    TMP DP  RH WIND       PRES   REMARKS
BECKLEY        RAIN      44  42  93 N6        29.76R FOG
LOGAN          NOT AVBL
BLUEFIELD      LGT RAIN  40  38  93 W10       29.76R
LEWISBURG      CLOUDY    45  41  88 W3        29.72S
$$

WVZ047-060200-
Northern Mountains of West Virginia

CITY           SKY/WX    TMP DP  RH WIND       PRES   REMARKS
ELKINS         CLOUDY    48  44  86 CALM      29.72R
$$

WVZ052-060200-
Eastern Panhandle of West Virginia

CITY           SKY/WX    TMP DP  RH WIND       PRES   REMARKS
MARTINSBURG    CLOUDY    54  47  77 N6        29.68R
PETERSBURG     CLOUDY    55  52  90 CALM      29.69R
$$




USA.gov is the U.S. government's official web portal to all federal, state and local government web resources and services.